OBJECT AA, 61759

Orbit data source: Space-Track

You're viewing an Uncataloged Satellite

Recently launched and/or uncataloged satellites may have evolving metadata. Metadata may include but not limited to: Owner, Maufacturer, Bus, Motor, and Mission.

OBJECT AA, 61759 is a satellite in SSO that was launched on Mon, 04 Nov 2024 UTC via a SOYUZ-2-1B launch vehicle from the Vostochny Cosmodrome (VOSTO). Unknown objects in Earth's orbit typically refer to objects detected orbiting the Earth but have not yet been identified or cataloged. These objects could be anything from previously untracked satellites, spent rocket stages, debris from satellite collisions, or even natural meteoroids temporarily captured by Earth's gravity.

Loading next visibility...
Identifier
61759, 2024-199AA
Orbit
SSO
Country
Flag of TBDTBD
Related business
Manufacturer
Sputniks
Mission
Operational Commercial Communications
Bus & Motor
CUBESAT 3U?, Unknown motor
Mass
3 kg wet, 3 kg dry
Launch date (UTC)
2024-11-04 (1 year ago)
Launch vehicle
SOYUZ-2-1B
Launch site
Vostochny Cosmodrome (VOSTO)
Object type
Unknown
Shape & HBR
Box, 0.1 m
Radar Cross Section
0.035 m², Small (<0.1 m²)

Expand to show TLE details & history
Last TLE update: 5 hours ago

TLE from 5 hours ago
0 OBJECT AA
1 61759U 24199AA  26062.13909181  .00003131  00000-0  27440-3 0  9999
2 61759  97.3322 268.2590 0007599  71.7831 288.4219 14.97308386119267
Epoch: 2026-03-03T03:20Z
TLE epoch observation values (Epoch: 2026-03-03T03:20:17.532Z)
Latitude
0.00002°
Longitude
57.2635°
Altitude
576.612 km
Speed
7.573 km/s
True Right ascension
17h 53m 02s
True Declination
0° 00' 00"
Sunlit
Object was in daylight at epoch
Visualization orbit readout
Latitude
Unknown
Longitude
Unknown
Altitude
Unknown
Speed
Unknown
Apparent Right ascension
Unknown
Apparent Declination
Unknown
Sunlit
N/A
Visualization observer readout
Local Sidereal Time
12:19:15
Azimuth
Unknown
Elevation
Unknown
Doppler factor
Unknown
Orbital elements
Apogee altitude
577.492 km
Perigee altitude
566.928 km
Semi-major axis
6,950.347 km
Eccentricity
0.00076
Inclination
97.3322°
RAAN
268.259°
Arg. of periapsis
71.7831°
True anomaly
288.33926°
Mean anomaly
288.4219°
Eccentric anomaly
288.38058°
Mean motion
3.7457 °/min
Orbital period
96.11 mins
BSTAR
0.0002744
Loading maneuver chart data...
Computing Atmospheric mass density...
Loading historical data...
Loading historical data...
Loading historical data...
Loading historical data...
Loading historical data...
Loading historical data...
Loading historical data...

Documentation

Showing up to 5 results
|